Marion, IN

9:42 PM EDT on May 25, 2017 (GMT -0400)
Marion Municipal

Weather History for KMZZ - May, 2014

Change the Weather History Date:

Tuesday, May 13, 2014

  Actual Average (KMIE) Record (KMIE)
Temperature  
Mean Temperature 68 °F -  
Max Temperature 80 °F 70 °F 86 °F (1982)
Min Temperature 56 °F 49 °F 37 °F (2001)
Cooling Degree Days 3    
Growing Degree Days 18 (Base 50)    
Moisture  
Dew Point 62 °F    
Average Humidity 83    
Maximum Humidity 91    
Minimum Humidity 60    
Precipitation  
Precipitation 0.31 in - - ()
Sea Level Pressure  
Sea Level Pressure 30.01 in    
Wind  
Wind Speed 11 mph (SW)    
Max Wind Speed 22 mph    
Max Gust Speed 28 mph    
Visibility 7 miles    
Events Rain    
Averages and records for this station are not official NWS values.
T = Trace of Precipitation, MM = Missing Value Source: NWS Daily Summary

Daily Weather History Graph

Daily Weather History Graph

Search for Another Location

Airport or City:

Trip Planner

Search our weather history database for the weather conditions in past years. The results will help you decide how hot, cold, wet, or windy it might be!

Date:

Astronomy

May. 13, 2014 Rise Set
Actual Time 6:28 AM EDT 8:50 PM EDT
Civil Twilight 5:57 AM EDT 9:21 PM EDT
Nautical Twilight 5:19 AM EDT 9:59 PM EDT
Astronomical Twilight 4:37 AM EDT 10:41 PM EDT
Moon 7:51 PM EDT (5/13) 5:44 AM EDT (5/13)
Length of Visible Light 15h 23m
Length of Day
14h 22m
Waxing Gibbous, 98% of the Moon is Illuminated
May 13
Waxing Gibbous
May 14
Full
May 21
Last Quarter
May 28
New
Jun 5
First Quarter

Hourly Weather History & Observations

Time (EDT) Temp. Heat Index Dew Point Humidity Pressure Visibility Wind Dir Wind Speed Gust Speed Precip Events Conditions
12:15 AM 68.5 °F - 62.8 °F 82% 30.01 in 7.0 mi South 8.1 mph - N/A   Clear
12:35 AM 68.2 °F - 62.6 °F 82% 30.01 in 10.0 mi South 9.2 mph - N/A   Clear
12:55 AM 68.2 °F - 62.6 °F 82% 30.01 in 7.0 mi South 9.2 mph - N/A   Clear
1:15 AM 68.2 °F - 62.8 °F 83% 30.01 in 10.0 mi South 10.4 mph - N/A   Clear
1:35 AM 68.2 °F - 62.8 °F 83% 30.00 in 7.0 mi South 8.1 mph - N/A   Clear
1:55 AM 68.2 °F - 62.8 °F 83% 29.99 in 10.0 mi South 9.2 mph - N/A   Clear
2:15 AM 68.4 °F - 62.8 °F 82% 29.98 in 10.0 mi South 8.1 mph - N/A   Clear
2:35 AM 68.0 °F - 62.8 °F 83% 29.97 in 10.0 mi SSE 6.9 mph - N/A   Clear
2:55 AM 67.6 °F - 62.8 °F 84% 29.97 in 10.0 mi South 4.6 mph - N/A   Clear
3:15 AM 67.5 °F - 63.0 °F 85% 29.96 in 10.0 mi South 5.8 mph - N/A   Scattered Clouds
3:35 AM 67.5 °F - 63.1 °F 86% 29.96 in 7.0 mi South 8.1 mph - N/A   Scattered Clouds
3:55 AM 68.4 °F - 63.7 °F 85% 29.96 in 10.0 mi South 9.2 mph - N/A   Scattered Clouds
4:15 AM 69.3 °F - 63.7 °F 82% 29.96 in 10.0 mi South 10.4 mph - N/A   Scattered Clouds
4:35 AM 69.6 °F - 63.7 °F 81% 29.96 in 7.0 mi SSW 9.2 mph - N/A   Scattered Clouds
4:55 AM 69.3 °F - 63.7 °F 82% 29.96 in 10.0 mi SSW 10.4 mph - N/A   Mostly Cloudy
5:15 AM 69.3 °F - 63.7 °F 82% 29.96 in 10.0 mi SSW 10.4 mph - N/A   Overcast
5:35 AM 69.3 °F - 63.7 °F 82% 29.96 in 7.0 mi South 10.4 mph - N/A   Overcast
5:55 AM 69.3 °F - 63.5 °F 82% 29.96 in 10.0 mi SSW 10.4 mph - N/A   Overcast
6:15 AM 68.9 °F - 63.5 °F 83% 29.96 in 10.0 mi SSW 9.2 mph - N/A   Overcast
6:35 AM 68.5 °F - 63.5 °F 84% 29.96 in 7.0 mi SSW 9.2 mph - N/A   Scattered Clouds
6:55 AM 68.2 °F - 63.5 °F 85% 29.96 in 5.0 mi SSW 9.2 mph - N/A   Scattered Clouds
7:15 AM 68.4 °F - 63.7 °F 85% 29.97 in 7.0 mi SSW 10.4 mph - N/A   Mostly Cloudy
7:35 AM 69.1 °F - 64.0 °F 84% 29.98 in 5.0 mi South 12.7 mph - N/A   Haze
7:55 AM 69.6 °F - 64.4 °F 83% 29.98 in 7.0 mi South 11.5 mph - N/A   Overcast
9:15 AM 72.3 °F - 65.5 °F 79% 29.98 in 7.0 mi SSW 18.4 mph 21.9 mph N/A   Scattered Clouds
9:35 AM 73.0 °F - 65.7 °F 78% 29.98 in 7.0 mi SSW 16.1 mph - N/A   Mostly Cloudy
10:15 AM 73.8 °F - 65.8 °F 76% 29.98 in 7.0 mi SSW 15.0 mph 24.2 mph N/A   Scattered Clouds
11:55 AM 77.7 °F - 66.6 °F 68% 29.98 in 10.0 mi SSW 18.4 mph 25.3 mph N/A   Mostly Cloudy
12:35 PM 77.9 °F - 65.5 °F 65% 29.98 in 7.0 mi SW 20.7 mph 27.6 mph N/A   Overcast
1:15 PM 80.1 °F 81.9 °F 65.1 °F 60% 29.97 in 10.0 mi SSW 20.7 mph 26.5 mph N/A   Mostly Cloudy
1:35 PM 78.4 °F - 64.8 °F 63% 29.98 in 7.0 mi West 21.9 mph 27.6 mph N/A   Overcast
1:55 PM 73.4 °F - 65.1 °F 75% 29.99 in 10.0 mi West 17.3 mph - N/A   Overcast
2:15 PM 73.2 °F - 65.8 °F 78% 29.99 in 7.0 mi West 19.6 mph - N/A   Mostly Cloudy
2:35 PM 71.4 °F - 64.9 °F 80% 30.00 in 5.0 mi West 16.1 mph - 0.03 in Rain Light Rain
2:55 PM 70.9 °F - 64.9 °F 81% 30.01 in 5.0 mi West 16.1 mph 23.0 mph 0.04 in   Haze
3:15 PM 69.8 °F - 64.9 °F 84% 30.01 in 3.0 mi WSW 10.4 mph 18.4 mph 0.04 in Rain Light Rain
3:35 PM 69.1 °F - 64.9 °F 87% 30.01 in 4.0 mi WSW 11.5 mph - 0.08 in Rain Rain
3:55 PM 68.9 °F - 64.0 °F 84% 30.00 in 7.0 mi WSW 13.8 mph - 0.10 in Rain Light Rain
4:15 PM 69.1 °F - 64.0 °F 84% 30.00 in 7.0 mi WSW 11.5 mph - N/A   Mostly Cloudy
4:35 PM 70.5 °F - 65.5 °F 84% 30.01 in 10.0 mi WSW 12.7 mph - N/A   Mostly Cloudy
4:55 PM 72.0 °F - 65.7 °F 80% 30.00 in 10.0 mi WSW 17.3 mph - N/A   Mostly Cloudy
5:15 PM 71.8 °F - 64.6 °F 78% 30.01 in 7.0 mi WNW 19.6 mph 27.6 mph N/A   Mostly Cloudy
5:35 PM 69.3 °F - 63.9 °F 83% 30.02 in 7.0 mi WNW 15.0 mph - N/A   Overcast
5:55 PM 68.2 °F - 63.0 °F 83% 30.03 in 10.0 mi WNW 15.0 mph - N/A   Overcast
6:15 PM 66.9 °F - 61.7 °F 83% 30.03 in 7.0 mi WNW 12.7 mph - N/A   Overcast
6:35 PM 66.0 °F - 61.2 °F 84% 30.04 in 2.5 mi WNW 11.5 mph - 0.02 in   Haze
6:55 PM 64.9 °F - 61.2 °F 88% 30.04 in 1.8 mi WNW 12.7 mph - 0.03 in   Overcast
7:15 PM 63.7 °F - 60.3 °F 89% 30.04 in 1.5 mi WNW 15.0 mph 18.4 mph 0.02 in   Overcast
7:35 PM 62.6 °F - 59.0 °F 88% 30.05 in 5.0 mi WNW 12.7 mph - 0.03 in   Overcast
7:55 PM 61.9 °F - 58.1 °F 87% 30.05 in 10.0 mi WNW 12.7 mph - 0.03 in   Overcast
8:15 PM 61.0 °F - 57.0 °F 87% 30.06 in 2.0 mi WNW 13.8 mph - 0.04 in Rain Light Rain
8:35 PM 59.9 °F - 56.7 °F 89% 30.07 in 4.0 mi WNW 11.5 mph - 0.05 in   Overcast
8:55 PM 59.4 °F - 56.1 °F 89% 30.08 in 10.0 mi WNW 10.4 mph - 0.05 in   Overcast
9:15 PM 59.4 °F - 55.4 °F 87% 30.10 in 10.0 mi WNW 12.7 mph - N/A   Overcast
9:35 PM 59.0 °F - 54.7 °F 86% 30.10 in 5.0 mi WNW 10.4 mph - N/A   Overcast
9:55 PM 58.5 °F - 54.0 °F 85% 30.11 in 7.0 mi WNW 10.4 mph - N/A   Overcast
10:15 PM 57.7 °F - 53.8 °F 87% 30.11 in 5.0 mi WNW 8.1 mph - 0.02 in Rain Light Rain
10:35 PM 57.2 °F - 54.3 °F 90% 30.12 in 4.0 mi WNW 9.2 mph - 0.05 in Rain Light Rain
10:55 PM 56.5 °F - 53.6 °F 90% 30.14 in 5.0 mi West 9.2 mph - 0.06 in Rain Light Rain
11:15 PM 56.7 °F - 54.1 °F 91% 30.14 in 4.0 mi WNW 8.1 mph - N/A   Overcast
11:35 PM 56.3 °F - 53.6 °F 91% 30.13 in 5.0 mi WNW 10.4 mph - N/A   Overcast